Regional Weather Roundup
Issued by NWS

Home | Current Version | Previous Version | Graphics & Text | Print | Product List | Glossary On
Versions: 1 2 3 4 5 6 7 8 9 10 11 12 13 14 15 16 17 18 19 20 21 22 23 24 25 26 27 28 29 30 31 32 33 34 35 36 37 38 39 40 41 42 43 44 45 46 47 48 49 50
143
ASUS45 KBOU 092307
RWRCO

WEATHER ROUNDUP FOR COLORADO
NATIONAL WEATHER SERVICE DENVER/BOULDER CO
400 PM MST FRI DEC 09 2016

NOTE: "FAIR" INDICATES FEW OR NO CLOUDS BELOW 12000 FEET WITH NO
SIGNIFICANT WEATHER AND/OR OBSTRUCTIONS TO VISIBILITY.

COZ001>005-013-030-031-100000-
...NORTHWEST COLORADO...

CITY           SKY/WX    TMP DP  RH WIND       PRES   REMARKS
CRAIG          CLOUDY    34  27  75 E10       30.18F WCI  26
HAYDEN         NOT AVBL
MEEKER         CLOUDY    38  24  57 W7        30.19F
MOUNT WERNER   NOT AVBL
STEAMBOAT SPGS CLOUDY    26  25  93 CALM      30.19F
WALDEN           N/A     32  25  74 S12G18    30.18R WCI  23
$$

COZ006>008-011-100000-
...WEST CENTRAL VALLEYS...

CITY           SKY/WX    TMP DP  RH WIND       PRES   REMARKS
GRAND JUNCTION CLOUDY    36  17  46 CALM      30.27S
MONTROSE       FAIR      38  20  48 CALM      30.26F
EAGLE          CLOUDY    36  27  69 E6        30.25F
RIFLE          CLOUDY    33  20  58 CALM      30.27F
DELTA          CLOUDY    41  20  44 CALM      30.27S
NUCLA          MOCLDY    45  21  39 E3        30.28S
$$

COZ017>023-064>068-100000-
...SOUTHWEST COLORADO...

CITY           SKY/WX    TMP DP  RH WIND       PRES   REMARKS
DURANGO        FAIR      43  19  38 SW6       30.26F
CORTEZ         FAIR      47  25  42 N3        30.26F
PAGOSA SPRINGS FAIR      39  18  42 SW5       30.28R
TELLURIDE      CLOUDY    42  15  33 CALM      30.29F
WOLF CREEK PAS FAIR      27  18  69 S9        30.36F WCI  17
$$

COZ009-010-012-014-032>034-037-058>063-100000-
...CENTRAL COLORADO...

CITY           SKY/WX    TMP DP  RH WIND       PRES   REMARKS
ASPEN          CLOUDY    32  27  81 SE3       30.22F
BUENA VISTA    FAIR      41  18  40 W10       30.16F
COPPER MTN     NOT AVBL
BERTHOUD PASS  SNOW      16   5  62 NW28G38   30.18F VSB<1/4 WCI  -4
COTTONWOOD PAS FAIR      36  19  51 SW21G51   30.16R
GUNNISON       FAIR      31  23  72 CALM      30.27S
KREMMLING      CLOUDY    41  30  65 SW8       30.21F
LEADVILLE      CLOUDY    27  19  72 N13       30.22F WCI  16
MONARCH PASS     N/A     21  19  93 W41G48    30.35S WCI   0
SALIDA         FAIR      47  19  33 W21G33    30.21F
SUNLIGHT       LGT SNOW  23  21  93 SW13G20   30.28S WCI  11
WILKERSON PASS FAIR      28  16  59 W12G23    30.21S WCI  18
$$

COZ069>075-100000-
...SAN LUIS VALLEY/SANGRE DE CRISTO MOUNTAINS...

CITY           SKY/WX    TMP DP  RH WIND       PRES   REMARKS
ALAMOSA        FAIR      42  20  41 SE5       30.22F
LA VETA PASS   FAIR      32  21  64 NE17G26   30.23R WCI  21
SAGUACHE       FAIR      36  18  48 E12       30.23S
$$

COZ035-036-038>040-100000-
...NORTHERN COLORADO FRONT RANGE...

CITY           SKY/WX    TMP DP  RH WIND       PRES   REMARKS
DENVER INTL AP FAIR      38  27  64 E9        30.08S
DMNS CITY PARK   N/A     48  20  33 E8G17     30.07S
AURORA         MOCLDY    47  26  44 NE6       30.08F
FRONT RANGE AP NOT AVBL
ERIE MUNI ARPT FAIR      31  25  76 N5        30.09R WCI  27
BOULDER MUN AP MOCLDY    30  21  69 N8        30.07R WCI  23
CENTENNIAL     MOCLDY    49  24  37 NE6       30.08S
BROOMFIELD     MOCLDY    45  27  49 E13       30.07S
FORT COLLINS   FAIR      30  19  64 E8        30.10R WCI  23
LONGMONT       FAIR      32  22  67 E8        30.11R WCI  25
$$

COZ041-046-047-076>085-087-088-100000-
...PIKES PEAK/PALMER DIVIDE AND SOUTHERN FOOTHILLS...

CITY           SKY/WX    TMP DP  RH WIND       PRES   REMARKS
COLO. SPRINGS  MOCLDY    47  24  40 CALM      30.11S
A. F. ACADEMY  FAIR      43  28  54 SE6       30.09S
SCHRIEVER AFB  NOT AVBL
ELLICOTT       FAIR     N/A N/A N/A CALM      30.10S
FALCON         FAIR      42  24  49 S6        30.12F
FORT CARSON    FAIR      49  25  39 SE9       30.07F
LIMON          FAIR      46  20  35 SE7       30.11R
MONUMENT HILL  FAIR      39  23  52 SE7       30.11F
TRINIDAD       FAIR      53  18  25 S8        30.12R
$$

COZ042>045-048>051-090-091-100000-
...NORTHEAST COLORADO...

CITY           SKY/WX    TMP DP  RH WIND       PRES   REMARKS
GREELEY ARPT   FAIR      31  21  66 S6        30.12S WCI  25
AKRON          MOCLDY    28  19  69 SE8       30.14R WCI  20
BURLINGTON     FAIR      35  18  49 SE9       30.16R WCI  28
WRAY           NOT AVBL
STERLING       FAIR      32  21  64 NE7       30.16S WCI  26
HOLYOKE        FAIR      32  19  59 NE6       30.21R WCI  26
FORT MORGAN    FAIR      29  20  69 E8        30.14S WCI  21
$$

COZ086-089-092>099-100000-
...SOUTHEAST COLORADO...

CITY           SKY/WX    TMP DP  RH WIND       PRES   REMARKS
PUEBLO         FAIR      41  14  33 E6        30.09S
LA JUNTA       FAIR      38  11  32 E10       30.12S
LAMAR          FAIR      42  14  32 NE5       30.14S
SPRINGFIELD      N/A     41  22  46 S8        30.15R
$$




USA.gov is the U.S. government's official web portal to all federal, state and local government web resources and services.